GFSGL_2pvu_pres_159.txt.gz
Presure
187 161 172 177 184 173 166 179 152 145 152 151 148 152 135 147 135 131 142 132 150 149 169 139 136 145 125 139 128 136 133 116 125 121 125 132 129 133 139 137 129 125 162
150 123 183 186 170 167 186 142 144 144 163 154 115 149 144 136 129 136 140 125 152 141 130 125 123 119 134 142 136 123 124 128 130 119 119 119 117 124 122 141 144 152 153
150 132 152 142 165 160 171 160 141 141 140 127 142 154 144 150 136 137 133 138 149 145 135 117 126 121 116 121 138 138 132 122 117 124 122 122 119 153 140 137 146 125 142
149 141 149 152 155 151 132 174 145 157 133 156 133 175 172 138 140 134 138 141 142 129 127 139 136 125 124 123 144 129 124 121 126 118 132 134 148 122 123 135 140 141 136
148 160 138 135 139 161 152 157 165 156 154 142 139 153 165 138 138 144 129 133 137 156 124 140 127 130 125 144 124 117 123 120 121 130 121 144 123 138 143 139 143 147 126
147 117 149 153 144 137 148 179 176 189 168 140 165 140 168 144 146 156 161 147 154 123 130 140 131 139 139 156 130 131 125 133 132 127 138 142 145 149 121 116 141 131 149
126 155 138 137 139 160 148 146 136 133 134 125 137 124 120 131 154 163 143 150 144 144 135 128 131 131 136 131 149 154 132 125 140 132 144 148 150 149 136 147 138 140 132
137 139 146 150 142 151 155 137 146 127 124 140 152 144 145 128 131 133 171 137 141 149 144 153 149 134 132 140 134 142 136 134 142 114 152 127 140 160 146 143 144 138 127
149 158 137 152 160 143 192 129 166 143 133 145 142 141 150 154 154 140 138 126 130 130 132 141 164 141 143 132 134 125 135 136 159 159 165 139 114 127 126 139 130 132 146
160 148 142 161 155 172 154 148 129 162 160 129 130 139 143 144 140 155 165 140 154 144 135 135 145 134 134 134 140 147 144 125 130 123 151 130 132 116 124 137 151 150 131
169 133 162 144 148 157 152 161 154 148 153 143 147 146 150 145 141 137 144 146 155 150 139 146 140 146 138 145 134 130 143 135 121 116 125 133 149 125 135 137 136 145 143
156 148 169 129 140 152 158 162 157 154 161 162 146 138 127 156 140 143 148 143 147 157 153 143 143 146 144 126 144 133 137 149 154 151 134 136 154 130 133 132 151 153 134
159 166 170 148 145 162 149 144 160 160 155 164 150 160 156 155 126 149 147 127 145 131 152 146 125 162 159 152 153 151 114 141 135 121 150 143 134 123 120 127 128 148 143
143 141 149 164 165 160 161 164 174 166 170 161 166 157 168 176 151 126 141 161 154 137 138 112 114 129 148 147 139 144 128 134 148 144 143 125 150 151 121 149 153 153 150
171 171 160 142 180 159 168 172 144 165 154 161 150 165 160 152 168 126 147 157 137 145 128 151 160 126 133 141 144 157 135 143 135 156 150 145 148 141 155 159 157 138 146
204 188 169 173 172 140 193 209 156 178 166 158 136 141 174 175 174 162 161 150 147 154 158 157 138 151 152 159 156 152 160 155 152 148 152 150 139 144 161 160 141 168 161
193 258 201 255 172 172 172 168 173 141 154 180 174 157 161 160 142 160 148 171 165 158 155 147 162 158 160 152 165 156 157 157 150 159 132 161 159 160 129 156 154 150 155
243 226 244 247 212 241 217 178 172 174 175 152 146 155 153 151 164 164 162 159 174 151 144 168 163 160 159 155 160 158 159 142 147 150 150 163 163 151 164 159 157 144 164
225 230 236 238 239 241 244 221 228 217 188 173 172 169 154 153 149 148 164 168 169 171 166 159 153 151 158 138 154 143 150 158 157 162 169 168 157 158 154 156 161 160 164
233 234 231 232 237 243 242 193 247 247 247 248 235 211 184 176 178 172 168 163 157 153 150 156 167 165 173 170 159 151 166 177 162 158 157 160 163 163 163 162 160 163 167
217 223 228 232 235 236 239 243 246 247 251 252 258 221 251 192 232 222 223 179 173 171 168 168 163 162 164 162 162 165 170 166 161 162 166 168 169 166 167 170 173 180 182
242 247 247 227 232 230 230 232 233 236 240 241 245 249 254 256 254 246 195 193 203 211 214 200 185 178 174 172 170 168 171 178 175 182 185 186 189 188 188 191 189 188 190
252 254 256 258 258 259 261 262 263 261 246 239 238 237 244 241 245 247 253 249 247 228 261 256 191 193 196 196 196 191 193 184 180 191 184 185 199 185 186 191 197 199 203
398 393 405 412 437 460 419 386 347 305 238 244 236 235 233 228 227 232 243 244 245 245 243 251 260 253 249 266 266 258 252 257 233 215 220 214 247 249 247 257 235 236 232
355 333 328 328 341 414 352 337 325 321 319 329 349 315 262 259 256 246 241 243 238 236 240 240 236 239 242 248 244 240 245 234 232 235 236 237 228 225 218 221 219 229 227
257 289 343 312 286 286 288 290 294 294 292 287 317 327 358 275 251 249 248 237 236 235 230 229 228 229 231 232 234 235 238 234 232 230 233 232 227 234 235 232 228 221 222

GFSGL_2pvu_pres_162.txt.gz
Presure
181 197 222 155 165 175 172 181 174 185 163 147 150 168 155 132 132 135 138 141 143 151 160 125 136 132 127 136 125 119 122 133 119 132 127 122 122 126 126 135 152 148 142
168 160 158 179 153 173 158 189 158 149 153 144 159 146 144 151 133 133 136 139 129 151 131 132 127 137 132 133 128 120 130 132 122 125 131 120 123 122 126 157 125 132 124
179 163 167 162 173 168 170 154 166 152 154 149 153 128 160 155 140 136 147 145 145 136 151 143 123 140 144 128 140 129 141 126 123 126 122 124 125 125 129 145 128 146 138
166 150 146 170 171 153 182 159 137 144 133 151 163 136 160 141 142 142 142 148 129 153 144 160 149 124 124 126 131 136 135 136 125 129 140 121 123 143 134 142 133 148 134
160 144 151 153 156 144 165 160 147 140 140 118 119 160 165 166 142 141 137 146 135 148 149 158 132 118 153 123 117 119 126 147 126 120 122 128 128 128 138 138 142 151 150
132 156 147 146 149 152 152 144 167 142 143 132 155 148 167 177 163 161 139 140 132 120 156 143 136 125 156 125 128 161 170 128 129 136 125 123 130 121 138 140 162 152 162
156 146 150 150 151 147 148 147 156 154 153 128 158 153 127 140 149 158 142 140 144 147 128 141 156 133 125 137 137 141 137 127 129 133 130 137 135 146 144 140 155 133 151
175 166 158 172 155 137 165 170 148 163 145 152 148 177 161 143 150 145 127 128 141 146 140 132 148 150 138 135 137 134 131 133 129 155 135 133 127 152 156 148 141 127 123
153 155 175 134 161 164 142 144 146 147 144 152 144 160 127 136 141 158 157 126 133 138 159 154 143 134 146 149 132 153 153 130 135 144 147 142 145 154 140 133 117 153 134
155 155 144 147 182 172 143 161 166 148 152 130 153 133 147 147 137 166 133 132 147 130 132 133 127 147 142 132 149 142 159 146 136 135 145 147 148 119 129 132 138 147 136
169 177 153 165 150 162 152 153 155 155 151 146 150 150 138 158 155 146 145 143 148 130 117 134 139 135 138 141 143 149 138 148 148 144 123 127 155 156 121 154 135 122 134
160 174 174 165 144 142 167 182 171 160 158 173 141 178 170 150 149 149 139 145 149 153 160 168 149 127 140 157 150 134 144 153 151 146 111 153 120 148 151 149 122 109 143
164 190 167 177 163 149 144 170 159 150 164 187 156 182 183 169 125 154 143 152 148 158 152 153 134 151 156 144 170 173 174 169 146 156 154 160 157 116 142 118 149 127 155
178 163 167 126 153 171 158 171 145 165 148 143 179 131 154 156 161 161 152 151 144 154 150 159 157 129 127 104 148 129 131 123 140 149 131 158 135 150 143 142 132 160 158
162 178 163 165 165 140 159 162 184 148 172 146 145 136 149 155 143 151 158 165 159 147 146 145 145 145 127 141 138 158 159 154 143 166 153 148 141 132 155 159 161 158 150
172 180 167 162 179 178 185 148 157 157 157 170 155 153 147 166 161 178 151 153 159 158 153 171 151 168 160 160 160 162 161 142 137 144 156 151 160 163 158 141 159 154 142
205 213 213 174 169 172 165 185 158 155 140 136 145 168 160 163 162 167 156 153 161 159 153 134 147 128 126 126 149 151 154 156 157 157 158 159 133 167 165 158 149 156 164
260 209 242 203 224 168 166 169 172 172 172 172 169 149 137 160 166 175 158 158 155 156 159 163 161 148 148 143 143 163 136 154 161 163 157 171 160 143 152 147 163 163 154
249 248 251 253 249 230 221 221 208 175 192 199 209 206 203 192 178 171 163 165 152 160 144 168 163 136 136 139 149 144 159 154 160 150 155 158 153 160 161 159 154 163 166
224 235 239 182 240 247 249 250 215 245 209 245 207 190 183 180 178 174 172 177 179 193 195 152 151 152 155 154 150 155 155 155 154 152 166 158 155 165 168 162 163 167 169
217 235 240 227 233 236 238 244 247 249 250 175 249 249 223 214 255 258 207 257 231 183 178 174 171 168 172 185 164 163 161 162 163 162 162 163 164 163 165 170 176 186 197
229 236 229 229 234 242 247 249 243 244 242 247 249 248 247 247 249 250 248 247 251 260 225 205 196 243 213 182 172 170 168 170 173 173 171 175 182 195 194 201 199 196 186
231 230 242 249 256 264 269 271 270 270 270 270 269 254 239 237 237 237 237 239 241 243 248 247 250 217 249 242 246 237 196 196 198 199 193 191 187 204 199 192 200 205 219
241 242 241 359 339 348 369 444 441 432 423 383 261 258 264 268 270 272 265 257 236 233 235 238 240 248 251 249 247 249 247 248 245 255 255 241 243 246 248 241 238 242 245
225 241 245 265 372 325 315 322 333 345 345 339 329 330 332 336 358 253 252 254 254 246 238 234 232 236 235 233 233 235 242 237 248 231 238 237 232 234 242 236 247 242 223
246 237 237 236 249 269 301 356 339 316 303 303 310 297 293 309 318 327 363 381 295 256 233 231 233 230 226 231 247 232 250 248 243 237 239 237 231 253 231 231 234 239 226

GFSGL_2pvu_pres_165.txt.gz
Presure
188 244 221 253 198 206 212 153 168 167 148 145 118 145 139 123 133 139 137 140 137 142 164 126 129 139 133 136 126 118 118 130 127 129 124 119 118 119 126 147 123 150 117
198 211 227 241 244 180 160 168 162 166 148 149 147 139 116 126 140 142 140 130 134 150 158 167 146 136 119 131 134 123 130 131 117 120 117 120 126 122 129 119 145 124 127
169 165 166 150 180 165 157 158 154 179 195 163 156 157 143 123 124 136 143 144 141 152 152 129 128 140 147 134 133 128 123 124 129 136 130 136 124 139 126 120 132 136 158
170 144 165 153 170 173 166 167 167 179 164 145 135 165 143 135 137 131 133 142 141 137 141 159 137 121 121 132 126 125 132 131 133 133 125 126 130 132 122 124 127 131 145
181 131 171 163 171 169 158 176 158 172 141 164 150 168 160 150 146 134 142 133 145 144 133 159 159 149 140 125 121 126 119 128 130 131 132 132 130 132 118 134 133 129 127
176 156 162 174 172 165 180 164 161 159 137 135 165 151 149 150 160 120 131 141 139 147 147 151 141 149 161 141 126 139 144 123 124 143 145 122 126 127 152 134 136 112 140
161 166 152 162 179 152 181 162 167 148 144 132 134 178 133 157 151 150 165 142 129 130 138 134 127 119 152 144 135 128 139 140 132 138 127 131 124 126 144 148 119 122 151
172 167 163 150 157 147 152 162 158 155 149 147 145 136 154 126 147 166 167 167 163 143 141 131 138 141 142 133 142 151 139 137 133 134 131 133 128 126 134 133 136 150 149
189 159 162 129 161 155 152 138 153 154 162 133 129 150 149 163 129 132 140 148 147 143 157 160 141 137 140 145 133 144 146 143 147 150 168 149 155 158 159 141 151 153 145
148 168 166 145 145 164 159 155 156 152 157 168 154 153 138 152 164 162 140 145 164 139 158 168 160 133 151 155 142 134 144 129 138 140 133 128 136 142 142 109 125 142 150
167 155 170 159 153 173 140 164 163 172 173 163 163 164 155 159 162 168 165 150 159 139 165 158 139 131 142 128 147 154 133 152 141 153 151 151 150 156 154 155 155 149 136
171 152 170 169 171 154 168 156 149 168 137 165 169 161 154 163 158 148 149 172 151 151 143 162 157 170 168 179 151 164 155 143 122 124 191 178 156 162 145 130 148 127 154
171 181 169 190 158 148 157 135 140 173 170 169 144 165 157 172 177 149 146 174 145 155 143 167 138 145 138 149 136 163 146 183 175 141 147 120 150 138 145 146 161 152 124
171 177 169 160 183 148 146 157 160 135 154 139 152 156 142 139 165 161 162 153 167 191 147 143 153 166 152 158 159 127 129 146 141 158 149 150 152 126 122 148 162 160 172
169 176 177 163 162 164 200 179 149 159 172 141 139 153 143 154 165 147 157 171 169 193 151 169 142 135 143 148 163 163 168 161 163 166 168 157 148 161 164 166 169 167 170
202 172 203 166 167 170 159 158 186 165 169 152 160 175 173 154 173 153 141 139 155 141 140 141 141 142 143 139 144 146 151 148 146 148 155 154 148 150 150 146 160 157 145
186 200 192 209 175 167 169 171 175 169 166 162 178 133 139 144 183 178 159 154 166 170 150 146 146 147 159 158 156 141 139 139 147 146 150 152 141 138 138 156 159 150 144
247 250 227 200 171 264 190 170 171 170 169 200 185 168 168 165 167 147 148 149 154 149 149 157 159 156 142 145 144 148 141 152 149 139 144 135 139 147 158 158 160 161 169
235 242 227 228 191 260 231 191 173 172 195 187 176 186 171 170 167 170 178 167 177 159 152 164 150 144 144 161 158 150 150 156 156 157 160 150 142 141 147 155 157 166 159
249 231 227 235 241 235 229 249 221 247 184 197 171 176 187 174 171 174 173 179 167 190 183 166 158 166 165 166 168 170 170 166 158 158 153 153 167 172 182 169 173 202 192
221 245 242 218 231 232 234 229 246 246 247 248 192 180 173 181 183 186 187 189 174 174 177 178 181 179 176 177 177 174 170 165 163 163 162 162 162 162 162 162 164 171 206
242 210 231 223 224 230 243 238 234 240 247 248 247 243 246 251 255 259 260 246 215 220 248 249 250 228 218 218 219 248 246 247 248 245 245 250 271 259 213 210 236 230 230
245 247 244 243 241 241 243 248 256 270 373 394 293 285 279 275 265 259 250 246 248 245 244 248 245 241 239 245 245 243 244 244 241 244 246 247 240 233 221 223 230 235 238
237 231 237 239 244 248 250 254 269 336 343 397 409 422 425 392 376 271 270 271 267 264 265 259 249 238 239 236 234 231 230 231 232 231 229 228 228 234 235 230 236 229 229
237 237 235 233 229 236 246 235 241 315 357 322 331 333 332 326 322 327 325 342 349 357 277 255 255 258 260 261 264 266 265 258 251 229 224 227 225 223 221 219 216 215 217
225 220 216 223 242 238 226 225 233 240 256 270 301 362 332 313 304 302 302 304 305 313 359 379 378 353 343 251 236 232 236 238 239 232 225 220 217 218 226 239 237 235 231

GFSGL_2pvu_pres_168.txt.gz
Presure
183 202 224 202 276 230 231 234 220 169 161 173 160 154 132 142 147 140 139 147 141 135 146 149 147 129 133 137 124 127 131 123 123 132 118 121 123 121 121 130 135 130 123
201 219 224 207 197 224 235 227 207 171 152 164 162 146 145 124 139 152 146 135 150 146 144 141 135 136 134 134 136 133 129 133 126 120 114 125 119 129 141 112 124 120 124
191 209 216 199 202 213 219 195 191 161 125 168 149 137 149 124 133 144 139 138 141 146 151 166 140 136 130 133 135 135 130 135 139 136 141 133 125 124 143 118 124 125 124
191 197 203 184 227 237 174 172 173 165 153 148 153 148 145 147 134 142 145 145 135 137 154 160 162 123 128 136 116 122 119 122 117 135 129 132 124 129 135 120 116 139 128
176 160 176 195 183 176 163 170 160 161 162 147 150 154 142 130 151 137 126 138 148 147 146 152 151 158 139 131 126 126 121 123 131 129 133 122 132 150 125 125 135 158 145
169 174 171 177 131 167 145 163 161 163 170 145 179 161 176 150 139 133 136 129 131 143 142 143 146 155 168 157 147 143 139 131 132 150 127 127 129 141 119 130 134 140 132
185 172 165 147 177 170 162 161 171 168 171 151 157 149 162 124 155 135 150 143 139 139 140 150 151 154 157 135 130 164 165 148 142 130 137 133 136 140 135 137 142 143 146
157 183 156 171 172 159 159 171 171 168 178 179 135 151 145 153 161 147 147 157 130 135 139 138 131 133 130 128 127 134 143 140 141 144 141 155 141 147 140 141 136 133 137
139 160 162 184 179 179 165 158 144 159 135 170 164 151 159 132 126 148 151 157 154 151 155 135 137 135 140 138 143 141 142 131 142 150 133 135 153 151 154 149 130 139 144
148 169 154 156 183 179 179 174 157 176 158 146 137 158 138 144 173 148 130 152 150 145 164 161 162 146 124 146 149 148 138 130 131 131 134 132 140 152 149 134 161 159 162
186 187 158 145 170 182 172 167 189 176 175 137 137 156 148 144 148 153 170 142 145 176 174 170 151 160 178 134 156 160 154 153 140 153 136 145 137 153 135 151 136 138 165
192 182 176 158 156 186 177 156 163 175 168 165 167 152 141 157 158 164 140 144 176 142 143 131 142 157 138 147 141 159 173 169 131 163 152 183 152 131 161 136 130 142 146
192 193 171 199 169 178 154 173 146 172 173 170 165 169 144 176 175 151 164 157 163 172 169 171 127 128 181 150 140 135 141 153 146 140 146 160 130 133 99 122 121 123 125
258 197 177 186 179 166 171 164 174 181 150 177 151 173 165 176 149 173 178 181 150 170 138 141 149 152 183 158 173 146 159 142 157 148 119 124 148 149 143 167 151 141 148
189 198 190 182 170 179 162 159 175 152 169 171 143 137 182 157 177 175 140 181 174 151 170 210 189 175 155 143 165 173 170 143 136 137 141 135 134 128 148 139 149 147 130
255 223 197 202 179 173 185 174 157 195 176 145 156 175 163 144 168 159 155 168 143 144 147 159 155 152 168 158 147 154 144 159 135 139 145 140 145 140 145 141 145 144 151
236 245 224 232 184 207 179 173 167 175 175 190 153 205 157 145 177 163 155 152 149 159 154 152 150 145 141 139 153 172 142 142 145 143 145 144 133 140 141 133 138 143 156
232 227 228 218 201 241 183 207 185 180 170 169 170 183 175 192 168 156 135 164 172 169 157 160 154 149 154 167 192 148 147 149 147 145 150 143 139 144 136 135 136 143 144
258 255 235 223 235 248 237 182 188 202 187 180 171 172 178 167 171 171 175 172 185 189 164 156 162 171 144 156 168 173 152 174 164 150 150 155 155 157 151 152 152 146 167
233 242 249 235 232 230 225 237 259 245 185 199 203 191 181 198 193 173 175 174 185 179 184 182 180 194 190 191 173 177 170 171 161 169 161 161 162 161 163 166 166 165 177
216 219 215 212 245 267 245 248 224 244 245 245 246 252 209 242 197 190 186 188 194 203 197 178 188 191 190 187 177 180 171 176 174 174 177 174 173 168 163 170 178 210 207
206 232 251 255 261 262 263 234 235 243 228 233 233 240 234 259 261 257 267 214 248 204 262 199 220 195 175 183 182 181 180 202 190 252 220 233 211 183 200 234 233 227 234
260 253 251 252 251 248 251 252 250 245 242 230 228 236 309 450 502 426 377 285 271 263 265 260 258 255 250 245 251 252 250 248 248 248 248 245 240 244 237 238 235 231 229
192 228 233 234 234 236 238 240 247 249 250 263 255 262 286 345 356 367 392 398 398 377 275 269 268 264 259 250 248 237 237 239 239 238 234 236 235 231 224 223 221 215 213
185 189 243 236 231 237 236 236 235 249 252 243 262 248 242 267 310 335 324 320 318 324 339 339 338 356 371 269 267 257 257 257 256 252 252 252 252 252 249 247 247 241 240
218 207 235 228 229 225 226 225 225 236 243 252 242 239 229 229 242 257 273 285 342 322 310 306 308 310 359 375 373 355 323 312 312 314 274 247 248 239 229 224 220 218 217

GFSGL_2pvu_pres_171.txt.gz
Presure
197 183 234 238 121 214 199 194 191 180 168 179 160 133 143 134 134 144 152 156 132 154 119 131 129 134 136 148 132 129 134 124 125 117 121 124 119 122 126 131 129 136 126
191 211 215 215 292 174 249 189 214 240 162 181 163 160 147 133 139 140 130 140 156 163 142 149 138 132 132 126 127 116 127 125 128 125 125 124 123 124 130 129 121 125 127
182 194 202 238 193 213 232 237 240 195 152 108 152 147 132 140 134 140 151 142 135 147 148 142 162 138 142 137 142 137 134 130 124 133 116 137 119 121 126 135 121 128 123
182 191 197 202 187 216 232 159 247 175 159 169 144 151 100 129 144 131 154 139 147 142 143 146 147 139 138 137 146 140 139 138 135 137 140 137 138 120 134 143 115 116 152
182 189 189 202 212 182 216 216 231 172 155 158 170 170 158 148 121 158 137 143 132 131 151 156 160 146 145 120 126 127 117 132 143 120 124 131 128 128 129 123 136 135 120
185 189 190 204 200 218 247 225 211 174 170 165 175 170 174 125 151 134 134 143 146 145 138 127 151 162 173 161 140 128 130 138 124 140 132 130 131 146 149 144 135 150 137
139 187 190 200 199 210 204 177 208 177 167 171 152 163 168 151 148 161 139 125 139 150 151 157 159 152 156 156 158 176 154 149 151 149 147 131 141 135 129 140 137 144 152
136 146 150 187 195 192 181 171 146 170 166 171 149 157 163 132 142 137 128 143 148 132 136 138 149 148 149 135 158 159 139 132 135 145 126 165 155 153 140 140 143 136 122
154 149 144 146 189 183 181 173 148 171 170 153 146 156 154 157 162 158 124 165 157 142 149 146 139 149 148 157 142 145 152 165 147 150 123 123 136 126 142 135 152 129 146
134 138 172 169 167 181 182 148 170 169 139 171 172 177 149 196 172 142 134 160 163 166 136 119 140 144 144 118 157 121 108 122 166 131 149 143 154 152 147 128 125 159 160
146 193 168 159 157 169 165 149 179 172 169 172 156 175 186 126 153 159 151 170 175 143 154 165 172 161 152 174 141 143 147 152 138 151 140 152 159 171 149 141 167 145 162
148 192 142 141 150 189 174 163 163 178 185 178 178 181 190 177 139 161 155 156 133 168 141 146 164 175 162 157 139 174 166 138 125 168 175 136 155 172 161 170 174 124 157
221 172 162 139 178 152 196 143 155 169 177 182 168 188 165 176 154 164 148 147 183 154 174 125 124 137 145 157 161 141 177 134 160 163 173 137 147 128 141 137 155 161 126
213 225 180 215 136 182 167 183 148 144 181 180 141 146 180 149 168 165 154 158 164 146 165 147 158 163 155 179 182 157 146 164 168 160 178 153 170 157 154 121 144 148 150
234 213 224 131 140 166 181 183 185 143 163 142 181 166 181 173 169 176 158 166 170 166 167 168 175 172 160 179 166 172 174 135 141 146 163 151 161 177 152 162 143 135 154
242 231 221 256 238 254 211 199 189 174 172 147 164 181 164 153 157 140 183 180 169 169 171 170 179 179 172 165 141 150 161 169 163 163 158 162 149 143 135 130 123 137 146
211 220 227 233 245 214 222 253 201 194 194 170 159 168 167 184 179 172 146 163 140 143 144 152 153 157 154 139 173 178 181 142 143 137 137 136 139 141 148 144 151 152 150
215 221 225 222 229 236 244 201 229 217 199 192 193 192 163 171 158 165 161 143 170 162 178 154 155 162 180 154 174 144 143 159 142 148 145 143 152 145 143 147 139 137 152
225 235 244 266 273 268 213 223 237 239 221 201 193 202 191 186 182 185 172 149 184 191 191 171 181 198 178 176 181 168 169 169 185 175 140 146 153 143 144 162 160 175 175
206 213 208 211 222 261 257 239 213 234 245 226 221 260 251 196 225 194 191 191 189 186 190 187 180 179 188 183 176 164 166 194 193 204 153 195 185 182 177 181 181 179 171
199 190 211 216 222 224 230 233 238 242 244 223 249 233 236 244 255 238 197 232 201 226 205 197 181 202 202 201 195 193 193 198 199 187 183 181 179 184 191 193 200 200 171
220 220 207 188 191 202 227 213 260 234 258 263 270 253 244 250 235 235 244 252 260 264 221 215 225 209 202 202 215 202 213 196 186 219 212 210 203 212 208 199 204 191 194
206 192 202 193 235 187 187 220 232 255 254 251 252 258 259 261 250 248 240 248 258 313 278 255 256 251 251 258 266 264 268 264 262 241 263 254 256 255 250 244 242 240 239
213 241 226 192 221 185 204 223 259 253 245 241 241 241 243 248 255 253 259 260 307 362 347 341 357 374 379 364 269 263 259 255 246 244 243 242 243 238 237 239 238 230 228
202 196 185 179 206 208 225 236 240 238 240 237 234 237 239 239 254 255 243 242 251 267 269 331 332 324 318 322 325 330 361 364 327 320 271 266 256 252 249 250 248 247 246
212 212 187 219 234 229 220 199 232 229 229 224 225 225 231 234 244 241 241 234 233 236 245 243 251 267 284 318 315 320 351 382 374 353 324 322 321 321 321 316 305 292 288

GFSGL_2pvu_pres_174.txt.gz
Presure
164 196 193 214 122 215 164 196 192 197 180 169 164 156 166 152 139 122 140 132 132 127 125 127 133 131 134 130 148 144 127 126 126 128 127 126 118 121 132 132 135 138 126
179 186 193 198 221 129 187 180 84 219 187 173 177 178 155 140 143 127 143 136 148 140 125 121 140 132 135 133 140 125 128 126 125 125 128 126 132 139 137 132 125 131 126
165 183 188 204 216 292 282 110 185 197 178 199 172 189 146 156 132 141 160 159 149 143 144 130 132 139 137 135 137 140 140 130 129 138 132 128 128 125 128 120 127 120 119
174 180 183 191 199 179 210 248 226 81 184 207 176 169 157 146 149 136 159 142 150 156 159 127 134 127 136 133 135 128 134 130 129 126 124 127 131 144 126 120 122 130 123
154 174 182 177 183 204 193 221 245 220 201 247 160 164 163 138 155 127 137 169 174 157 159 169 148 145 134 140 132 142 142 129 134 136 139 139 135 148 139 141 139 125 145
152 168 179 186 181 194 185 219 240 241 244 184 169 157 180 138 123 149 124 138 143 142 178 173 157 153 155 130 135 140 146 146 159 124 145 132 147 133 151 150 143 156 144
142 134 168 182 183 189 170 210 221 230 244 178 149 177 150 165 151 146 146 137 127 140 176 149 144 152 156 165 140 120 118 130 123 128 130 137 135 128 135 145 134 131 157
147 141 145 178 185 188 180 202 221 221 173 187 153 153 157 172 143 151 149 118 136 132 139 141 149 155 127 134 162 167 158 162 133 136 165 139 136 135 144 160 130 130 164
160 145 151 147 181 182 178 200 204 149 220 219 162 153 153 167 168 161 158 152 143 149 122 120 131 147 150 156 157 162 134 161 144 149 138 161 161 129 127 144 134 123 124
154 138 138 146 145 179 188 193 195 210 200 206 149 156 122 153 169 173 169 163 138 143 127 149 142 151 127 133 143 157 129 121 125 125 124 133 121 128 131 141 132 128 143
180 173 148 166 149 168 165 191 192 161 167 197 165 165 139 165 157 157 160 188 155 152 161 147 146 144 153 131 133 147 151 141 148 149 156 116 154 145 119 153 142 183 168
196 186 145 137 143 141 174 174 186 190 188 195 170 181 169 165 153 154 153 140 150 164 161 161 138 166 159 165 188 168 163 160 162 157 162 146 167 156 126 139 155 170 128
248 173 182 140 143 148 204 142 160 184 182 149 177 151 177 172 176 191 175 173 154 169 154 148 167 175 172 174 155 140 153 160 164 131 128 130 139 139 148 153 163 169 171
246 179 169 163 141 151 188 185 141 148 187 179 182 175 161 175 171 170 171 176 184 181 153 159 159 144 144 158 159 175 154 132 133 152 156 151 174 177 154 161 166 141 150
248 244 213 218 167 163 155 142 195 218 151 169 173 185 163 182 182 174 176 177 167 185 182 175 171 167 174 168 174 153 164 160 157 146 156 159 160 157 161 170 159 165 169
243 267 237 225 241 170 212 177 189 135 134 180 152 164 176 157 160 186 188 167 174 154 151 175 178 180 176 178 176 166 167 168 167 167 161 178 168 149 148 145 149 147 149
217 269 246 219 239 238 234 239 190 183 162 204 191 160 184 175 191 158 160 188 168 186 185 164 161 153 159 165 171 163 165 154 182 167 176 172 158 142 165 168 171 142 142
207 228 237 234 226 228 233 241 232 227 251 231 197 203 188 177 187 182 158 172 174 170 169 141 140 150 154 155 163 164 164 146 162 159 153 174 168 164 168 172 147 152 153
214 213 212 227 246 250 231 265 260 259 252 241 208 198 230 196 203 190 186 182 189 159 157 171 175 178 181 162 168 171 154 160 161 150 170 159 141 140 142 142 140 156 170
202 206 202 212 216 223 230 236 236 235 255 273 271 252 230 227 187 184 194 202 209 191 196 195 181 161 158 164 167 157 185 172 170 179 184 179 172 168 174 181 173 153 160
193 206 204 200 208 216 211 213 216 227 219 233 241 255 256 253 239 231 252 248 253 200 201 204 207 204 205 201 208 207 202 199 195 199 199 196 208 167 198 191 196 197 193
192 205 209 195 207 206 206 192 203 207 207 202 204 238 243 225 234 245 278 282 268 255 243 241 239 232 266 243 218 215 218 197 194 206 198 190 191 199 200 199 200 218 200
189 200 209 213 211 197 218 208 210 198 226 229 210 202 208 265 238 241 261 264 265 266 268 271 271 276 284 281 317 306 290 268 270 285 274 258 251 250 252 251 253 253 253
205 184 194 195 214 210 213 227 210 194 201 211 190 239 198 251 250 248 243 245 249 249 246 270 258 257 257 318 355 340 335 337 337 368 344 262 253 247 242 242 244 233 227
207 193 209 204 201 201 225 211 204 206 204 195 185 237 232 233 234 234 232 230 237 230 245 259 246 242 241 255 257 276 288 319 329 364 384 381 338 330 317 310 311 315 294
200 199 210 197 212 198 210 204 191 207 160 244 230 229 228 230 227 222 219 230 228 241 245 241 262 233 231 230 238 236 243 250 254 262 303 347 364 380 348 337 310 307 312